Regional Weather Roundup
Issued by NWS

Home | Current Version | Previous Version | Graphics & Text | Print | Product List | Glossary On
Versions: 1 2 3 4 5 6 7 8 9 10 11 12 13 14 15 16 17 18 19 20 21 22 23 24 25 26 27 28 29 30 31 32 33 34 35 36 37 38 39 40 41 42 43 44 45 46 47 48 49 50
000
ASUS45 KTFX 221519
RWRMT
MONTANA HOURLY WEATHER ROUNDUP
NATIONAL WEATHER SERVICE GREAT FALLS MT
919 AM MDT MON SEP 22 2014

NOTE: "FAIR" INDICATES FEW OR NO CLOUDS BELOW 12000 FEET WITH NO
SIGNIFICANT WEATHER AND/OR OBSTRUCTIONS TO VISIBILITY.

* THESE STATIONS ARE NOT UNDER NWS QUALITY CONTROL. THEY DO NOT
   REPORT WEATHER SUCH AS PRECIPITATION OR FOG.

MTZ001>007-043-221600-
WEST OF THE DIVIDE
CITY           SKY/WX    TMP DP  RH WIND       PRES   REMARKS
KALISPELL      SUNNY     52  46  80 CALM      29.97R
MISSOULA       SUNNY     54  43  67 CALM      30.02R
BUTTE          PTSUNNY   54  45  72 CALM      30.12S
MULLAN PASS    PTSUNNY   61  39  44 NW3       30.10R
* ESSEX        N/A       45  40  83 E3         N/A
* LINCOLN      N/A       34  33  96 N/A        N/A
* POLSON       N/A       53  44  72 N/A        N/A
* RONAN APT    PTCLDY    55  48  77 N/A        N/A
* SEELEY LAKE  N/A       39  35  86 N1         N/A
* THOMP F APT  PTCLDY    51  50  96 NE3        N/A
$$

MTZ008-052>055-221600-
SOUTHWEST MONTANA
CITY           SKY/WX    TMP DP  RH WIND       PRES   REMARKS
BOZEMAN        CLOUDY    55  50  83 CALM      30.07F
DILLON         LGT RAIN  55  52  90 S5        30.12R
W YELLOWSTONE  PTSUNNY   52  48  86 S7        30.22R
* THREE FORKS  CLOUDY    55  37  51 N/A        N/A
* BOULDER HILL N/A       53  40  62 SW10       N/A
* MONIDA PASS  N/A       50  50 100 SE12       N/A
* WHITEHALL    N/A       59  49  70 SW3G11     N/A
* WISE RIVER   N/A       42  37  83 NW1G7      N/A
$$

MTZ009>010-012-014-046-048-049-054-221600-
EAST SLOPES AND CENTRAL MONTANA
CITY           SKY/WX    TMP DP  RH WIND       PRES   REMARKS
CUT BANK       PTCLDY    52  43  72 CALM      29.94R
GREAT FALLS    PTCLDY    64  46  52 S12       29.93S
HELENA         PTSUNNY   57  45  64 CALM      30.03F
MALMSTROM AFB  PTCLDY    59  50  72 SE3       29.95S
* CONRAD       SUNNY     50  50 100 N/A        N/A
* EAST GLACIER N/A       64  41  43 W7         N/A
* MONARCH      N/A       56  41  57 S9         N/A
* PENDROY      N/A       58  47  67 W3         N/A
* ROGERS PASS  N/A       58  42  55 SW4G9      N/A
* SAINT MARY   N/A       47  42  83 SE2G7      N/A
* SWEET GRASS  N/A       53  46  77 S14        N/A
* WHITE SULPH  N/A       60  50  70 S8G17      N/A
$$

MTZ011-013-016-021-035-040-045-047-050-051-221600-
NORTH CENTRAL MONTANA
CITY           SKY/WX    TMP DP  RH WIND       PRES   REMARKS
HAVRE          SUNNY     50  45  83 CALM      29.91S
LEWISTOWN      PTSUNNY   55  45  69 SE6       29.97S
* CHINOOK      SUNNY     54  43  67 E3        29.91S
* FORT BENTON  SUNNY     54  45  72 CALM      29.93S
* CHESTER      N/A       51  44  77 N/A        N/A
* DENTON       N/A       53  46  77 W1         N/A
* GEYSER       N/A       56  45  67 SW8        N/A
* JUDITH GAP   N/A       56  49  77 SE8        N/A
* LOMA         N/A       50  44  80 SW1        N/A
$$

MTZ017>020-022>027-061-062-221600-
NORTHEAST MONTANA
CITY           SKY/WX    TMP DP  RH WIND       PRES   REMARKS
GLASGOW        SUNNY     57  37  47 E18       29.94F
GLENDIVE       SUNNY     57  41  55 CALM      30.01R
JORDAN         SUNNY     59  43  56 SE3       29.94F
SIDNEY         SUNNY     55  41  59 CALM      30.03S
WOLF POINT     SUNNY     54  39  57 E10       29.98F
* BEAVER HILL  N/A       61  41  48 E14        N/A
* CIRCLE       N/A       61  45  56 SE5        N/A
* LINDSAY DVD  N/A       54  39  57 E11        N/A
* SACO         N/A       51  39  64 E8         N/A
$$

MTZ028>042-056>058-221600-
SOUTHCENTRAL AND SOUTHEAST MONTANA
CITY           SKY/WX    TMP DP  RH WIND       PRES   REMARKS
BAKER          SUNNY     57  39  51 SE14      30.02F
BILLINGS       PTSUNNY   59  45  60 SW15      29.98S
LIVINGSTON     CLOUDY    64  46  52 SW14G21   30.04S
MILES CITY     PTCLDY    61  41  48 SE7       29.96F
* LAUREL APT   CLOUDY    59  45  60 S5         N/A
* ROUNDUP APT  PTSUNNY   54  45  72 S11        N/A
* ALZADA       N/A       52  40  64 E2         N/A
* HYSHAM       N/A       57  42  57 W6         N/A
* LAME DEER    N/A       58  43  58 S9         N/A
* REED POINT   N/A       55  50  83 SW1        N/A
* ROSCOE HILL  N/A       61  43  52 E7         N/A
$$

REGIONAL REPORTS...DAKOTAS
CITY           SKY/WX    TMP DP  RH WIND       PRES   REMARKS
WILLISTON      SUNNY     57  39  51 CALM      30.03F
DICKINSON      SUNNY     57  43  60 S15       30.04S
BEACH          N/A       57  39  51 S15       30.02F
CROSBY         SUNNY     57  45  64 S6        30.02F
TIOGA          SUNNY     59  45  60 SE9       30.08F
WATFORD CITY   SUNNY     57  39  51 E10       30.01F
BISMARCK       SUNNY     59  48  67 SE10      30.12F
GRAND FORKS    SUNNY     61  52  72 SW7       30.13S
FARGO          SUNNY     57  48  72 S9        30.18S
BUFFALO SD     PTCLDY    57  41  55 SE7       29.98F
RAPID CITY     CLOUDY    59  43  56 S16       30.08F
$$

REGIONAL REPORTS...WYOMING/IDAHO/WASHINGTON
CITY           SKY/WX    TMP DP  RH WIND       PRES   REMARKS
GILLETTE       PTCLDY    63  43  48 S23       30.04S
SHERIDAN       PTCLDY    59  46  62 CALM      29.99F
CODY           PTSUNNY   64  46  52 SW13      30.06R
YELLOWSTONE LA PTSUNNY   48  46  93 CALM      30.29S
SALMON         CLOUDY    63  52  68 CALM      30.08R
MULLAN PASS    PTSUNNY   61  39  44 NW3       30.10S
SAND POINT     PTCLDY    50  50 100 CALM      29.94S
SPOKANE        PTSUNNY   61  45  56 SE6       29.93R
$$

REGIONAL REPORTS...ALBERTA
CITY           SKY/WX    TMP DP  RH WIND       PRES   REMARKS
CALGARY        SUNNY     59  43  56 S7        29.87S
LETHBRIDGE     SUNNY     59  45  60 W7        29.86S
MEDICINE HAT   SUNNY     63  50  63 S5        29.82F
EDMONTON       PTSUNNY   59  46  62 S2        29.76S
WATERTON GATE  N/A       66  41  40 S10G17     N/A
CARDSTON       N/A       61  46  58 SW7        N/A
MILK RIVER     N/A       54  45  72 S2         N/A
$$

REGIONAL REPORTS...SASKATCHEWAN
CITY           SKY/WX    TMP DP  RH WIND       PRES   REMARKS
SWIFT CURRENT  SUNNY     61  41  48 S12       29.90F
MOOSE JAW      N/A       55  46  72 E5        29.95F
REGINA         N/A       54  41  62 SE10      29.98F
VAL MARIE      N/A       57  45  64 SW1        N/A
ASSINIBOIA     N/A       57  37  47 SE8        N/A
CORONACH       N/A       55  39  55 SE7        N/A

$$



USA.gov is the U.S. government's official web portal to all federal, state and local government web resources and services.